Location: C�ndre?ti
(46.4000°N, 22.8833°E)
Time: 10:27:44
(UTC+00:00)

Daily predictions for brighter satellites

Satellite Brightness Start Highest point End
(mag) Time Altitude Azimuth Time Altitude Azimuth Time Altitude Azimuth
Cosmos 2084 3.7 15:09:24 10° NNW 15:13:35 51° NE 15:17:56 10° ESE
H-2A R/B 3.0 15:10:42 10° ESE 15:14:46 24° ENE 15:18:46 10° N
deb Kosmos-1763 4.5 15:11:30 10° SSW 15:14:52 57° WNW 15:18:15 10° NNE
MOS 1 Rocket 4.4 15:12:39 10° N 15:17:32 49° WNW 15:22:07 10° SW
Meteor 2-19 Rocket 4.4 15:11:32 10° N 15:17:38 73° E 15:23:44 10° SSE
USA 267 3.3 15:11:59 10° NE 15:18:34 82° SE 15:25:07 10° SW
Cosmos 1697 Rocket 3.0 15:15:00 10° NNW 15:20:24 45° NE 15:25:46 10° SE
ATLAS 5 CENTAUR R/B 4.0 15:11:57 10° NW 15:21:58 28° N 15:25:43 10° ENE
Cosmos 2369 4.3 15:18:12 10° NNW 15:23:25 34° NE 15:28:36 10° ESE
USA 306 4.0 15:19:53 10° WNW 15:23:44 32° N 15:27:35 10° NE
ERBS 3.7 15:21:09 10° W 15:23:56 26° NNW 15:26:43 10° NE
Cosmos 1980 Rocket 3.0 15:19:06 10° N 15:24:00 28° NE 15:28:50 10° ESE
Cosmos 1271 Rocket 4.2 15:21:53 10° SW 15:25:35 39° WNW 15:29:21 10° N
Cosmos 1763 Rocket 3.7 15:22:06 10° S 15:26:59 51° ESE 15:31:57 10° NNE
Meteor 1-25 Rocket 4.4 15:23:47 10° N 15:29:13 50° ENE 15:34:38 10° SSE
COSMO-SKYMED 1 4.2 15:28:25 10° NE 15:31:03 16° E 15:33:40 10° SE
USA 229 DEB 3.9 15:24:45 10° NW 15:32:03 72° NE 15:39:50 10° SE
USA 229 3.9 15:24:50 10° NW 15:32:09 72° NE 15:39:55 10° SE
Cosmos 841 Rocket 4.5 15:28:21 10° SSE 15:32:35 26° E 15:36:50 10° NE
Cosmos 1939 Rocket 2.9 15:28:52 10° SSE 15:32:56 61° ENE 15:36:58 10° N
SL-16 R/B 3.9 15:30:30 10° N 15:33:13 13° NE 15:35:32 11° ENE
ATLAS CENTAUR R/B 3.4 15:22:00 10° SW 15:33:16 63° SE 15:37:37 12° ENE
Cosmos 1937 Rocket 3.8 15:30:05 10° N 15:35:12 45° ENE 15:40:17 10° SE
Cosmos 2082 Rocket 3.2 15:33:35 10° SSE 15:38:13 26° ESE 15:42:35 11° NE
ATLAS 2AS CENTAUR R/B 4.4 15:33:17 10° WNW 15:39:23 24° NNW 15:45:16 10° NE
Cosmos 2026 Rocket 4.2 15:33:48 10° N 15:39:44 46° ENE 15:45:32 10° SSE
Cosmos 1812 4.3 15:37:24 10° SE 15:39:51 16° E 15:41:26 13° ENE
Cosmos 1633 Rocket 4.4 15:38:28 10° NNE 15:41:32 18° ENE 15:44:35 10° ESE
NOAA 6 4.0 15:36:34 10° SSE 15:41:41 72° ENE 15:46:49 10° N
USA 307 4.1 15:38:15 10° WNW 15:42:05 31° N 15:45:19 13° NE
Cosmos 990 Rocket 4.0 15:38:45 10° NNW 15:43:59 88° WSW 15:49:08 10° SSE
CZ-4B DEB 4.2 15:39:24 10° SSE 15:44:49 61° ENE 15:50:14 10° N
CORIOLIS 4.1 15:40:01 10° SSE 15:45:22 70° ENE 15:50:47 10° N
Cosmos 1408 Rocket 4.4 15:43:15 10° NNW 15:47:30 53° W 15:51:45 10° S
Cosmos 2278 4.4 15:42:50 10° N 15:47:53 31° NE 15:52:54 10° ESE
Cosmos 372 Rocket 4.4 15:44:48 10° N 15:49:42 39° ENE 15:54:36 10° SE
USA 234 3.3 15:45:44 10° SE 15:52:18 86° SW 15:58:52 10° NW
Okean O Rocket 2.5 15:48:57 10° ESE 15:52:40 27° ENE 15:56:24 10° N
Cosmos 1602 3.7 15:51:15 10° N 15:55:05 62° E 15:58:55 10° SSE
Cosmos 1743 Rocket 3.6 15:50:52 10° N 15:55:13 82° W 15:59:32 10° S
COSMOS 2406 3.3 15:49:48 10° S 15:55:26 58° ESE 16:01:00 10° NNE
NOSS 3-1 (A) 4.2 15:48:06 10° NW 15:55:39 84° SW 16:04:28 10° SSE
COSMOS 2455 3.3 15:50:26 10° S 15:56:04 43° ESE 16:00:45 15° NE
ATLAS CENTAUR R/B 3.9 15:53:40 10° WNW 15:56:10 15° NNW 15:58:46 10° N
USA 276 3.2 15:53:44 10° WNW 15:56:43 42° SSW 15:59:41 10° SE
Cosmos 1151 Rocket 4.0 15:55:14 10° SE 15:58:50 26° E 16:01:14 17° NE
Cosmos 1782 3.0 15:56:13 10° SSE 16:00:03 47° E 16:03:53 10° NNE
NOSS 2-2 (D) 4.4 15:57:13 10° NNW 16:02:13 57° NE 16:09:10 10° SE
Cosmos 1833 Rocket 2.6 15:56:41 10° SSW 16:02:18 83° ESE 16:07:58 10° NNE
ARGOS 3.6 15:57:23 10° SE 16:02:20 38° ENE 16:07:18 10° N
NOSS 2-2 (E) 4.4 15:57:36 10° NW 16:02:48 68° NE 16:10:09 10° SE
USA 308 4.1 16:00:56 10° WNW 16:04:41 29° N 16:06:49 19° NE
Cosmos 1666 Rocket 4.0 16:02:26 10° N 16:06:36 37° ENE 16:10:42 10° SE
Cosmos 858 Rocket 4.4 16:01:49 10° NNW 16:07:08 74° ENE 16:12:24 10° SSE
Cosmos 1809 Rocket 4.4 16:01:54 10° N 16:08:02 82° E 16:14:07 10° S
Cosmos 1340 Rocket 4.3 16:07:04 10° NNW 16:10:54 40° W 16:14:43 10° SSW
PAYLOAD B 4.2 16:06:02 10° SSE 16:11:37 78° ENE 16:17:15 10° NNW
Cosmos 1328 Rocket 4.5 16:09:13 10° SSE 16:12:58 27° E 16:13:45 26° ENE
Meteor 2-21 Rocket 4.4 16:08:07 10° N 16:14:10 59° ENE 16:20:07 10° SSE
CZ-2D R/B 3.1 16:12:12 10° SSE 16:16:02 87° ENE 16:19:53 10° NNW
ISS -3.6 16:12:48 10° WNW 16:16:09 55° NNE 16:17:10 37° ENE
CZ-4B R/B 3.1 16:13:30 10° SSE 16:18:51 63° ENE 16:24:09 10° N
SKYMED 2 3.8 16:16:31 18° NNE 16:19:29 46° E 16:23:40 10° S
Lacrosse 5 rocket 2.4 16:17:04 10° NW 16:20:24 26° NNE 16:20:54 26° NE
Cosmos 2360 4.5 16:16:31 10° NNW 16:22:15 72° WSW 16:27:55 10° SSE
CZ-2C R/B 2.6 16:18:09 10° NNE 16:23:15 53° E 16:28:18 10° S
GEOS 3 Rocket 4.1 16:21:01 25° E 16:23:32 40° NE 16:28:21 10° NNW
Cosmos 540 Rocket 3.4 16:18:54 10° SSW 16:24:00 88° WNW 16:28:33 13° NNE
Landsat 5 4.0 16:23:53 34° ENE 16:24:28 35° E 16:28:10 10° SSE
SL-08 RB Rocket 4.1 16:21:10 10° SE 16:25:27 39° ENE 16:29:44 10° N
CZ-4C R/B 3.0 16:19:12 10° NW 16:26:13 61° NE 16:34:29 10° SE
Cosmos 1818 4.2 16:21:40 10° NNW 16:26:45 36° NE 16:28:21 30° ENE
Cosmos 1814 Rocket 4.2 16:22:25 10° S 16:27:25 48° ESE 16:29:53 27° NE
SMAP 4.4 16:23:36 10° S 16:28:00 41° W 16:32:25 10° NNW
Meteor 1-26 Rocket 4.3 16:22:50 10° S 16:28:48 89° E 16:34:54 10° NNE
Cosmos 1500 3.2 16:25:59 10° NNW 16:29:44 79° W 16:33:27 10° S
MOS 1-B 4.4 16:24:55 10° SSE 16:30:42 81° WSW 16:36:31 10° NNW
USA 305 4.0 16:28:24 10° WNW 16:32:09 29° N 16:32:56 27° NNE
Cosmos 44 Rocket 3.9 16:28:00 10° NNW 16:32:33 35° NE 16:33:02 34° NE
Sich 1 3.5 16:32:07 10° NNW 16:36:20 60° W 16:40:35 10° S
Feng Yun 1-1 Rocket 4.5 16:31:17 10° SE 16:36:59 51° ENE 16:42:38 10° N
Cosmos 2360 Rocket 3.9 16:38:02 10° N 16:40:27 17° NNE 16:40:27 17° NNE
deb Chang Zheng 4 3.8 16:46:38 10° S 16:50:55 71° WSW 16:55:15 10° NNW
Cosmos 2208 Rocket 4.1 16:46:51 10° S 16:52:06 56° ESE 16:53:12 47° ENE
Cosmos 2142 Rocket 4.4 16:46:05 10° S 16:52:14 88° W 16:58:30 10° N
H-2A R/B 2.9 16:48:52 10° S 16:53:55 51° W 16:58:51 10° NNW
Cosmos 2150 Rocket 4.5 16:52:32 10° N 16:56:29 40° NNE 16:56:29 40° NNE
Meteor 1-14 Rocket 4.4 16:51:54 10° NNW 16:57:43 76° W 17:03:37 10° S
Meteor 2-16 Rocket 4.5 16:51:42 10° N 16:57:49 80° W 17:03:57 10° S
Cosmos 1666 2.9 16:55:42 10° NNW 16:59:24 64° W 17:03:03 10° S
USA 267 3.9 16:58:13 28° NE 17:01:18 46° NNW 17:07:28 10° W
Cosmos 2322 Rocket 3.2 16:56:23 10° NNW 17:00:05 30° NNE 17:00:05 30° NNE
Cosmos 2279 Rocket 4.0 16:55:48 10° SSW 17:02:01 79° W 17:08:16 10° N
USA 306 4.1 17:00:35 10° NW 17:03:44 30° N 17:03:44 30° N
Cosmos 2266 Rocket 3.9 17:00:14 10° N 17:06:36 67° E 17:12:58 10° SSE
COSMO-SKYMED 1 3.1 17:05:08 24° N 17:07:35 56° WNW 17:11:49 10° SSW
Cosmos 1980 Rocket 2.8 17:02:48 10° NW 17:08:20 55° WSW 17:13:47 10° S
Cosmos 841 Rocket 4.5 17:09:18 10° SW 17:14:12 44° WNW 17:17:15 21° N
Cosmos 1812 4.0 17:11:40 10° SW 17:15:16 38° WNW 17:16:31 29° NNW
Spot 2 4.4 17:12:59 30° SSE 17:15:35 85° ENE 17:20:45 10° NNW
Meteor 2-15 Rocket 4.3 17:12:14 10° S 17:18:18 69° E 17:19:10 61° NE
SL-16 R/B 2.6 17:13:03 10° NNW 17:17:26 46° NNE 17:17:26 46° NNE
Cosmos 1125 Rocket 4.2 17:13:35 10° NNW 17:17:07 41° N 17:17:07 41° N
Cosmos 1633 Rocket 4.0 17:15:23 10° NNW 17:19:35 47° W 17:23:46 10° SSW
Cosmos 2082 Rocket 2.8 17:16:24 10° SW 17:21:57 53° WNW 17:24:27 31° N
Cosmos 2333 Rocket 4.3 17:23:03 10° N 17:24:11 14° N 17:24:11 14° N
Okean O Rocket 3.2 17:24:48 10° SSW 17:28:52 35° W 17:32:59 10° NNW
ATLAS 2AS CENTAUR R/B 4.3 17:27:32 10° NW 17:33:07 22° N 17:33:28 21° NNE
Cosmos 1655 Rocket 4.2 17:31:20 10° NNW 17:37:43 72° W 17:44:02 10° S
COSMOS 2455 3.9 17:36:23 10° WSW 17:42:02 41° NW 17:43:55 32° N
ISS -0.3 17:49:48 10° WNW 17:50:10 12° W 17:50:10 12° W
Lacrosse 5 rocket 4.1 17:55:51 10° NW 17:56:30 15° NW 17:56:30 15° NW
ATLAS CENTAUR R/B 4.3 17:59:21 10° W 18:03:22 23° NW 18:03:22 23° NW
CZ-4C R/B 4.0 18:07:55 10° NW 18:14:51 42° WSW 18:20:11 20° S
Cosmos 2360 Rocket 4.4 18:21:06 10° NNW 18:22:13 16° NNW 18:22:13 16° NNW
Cosmos 2322 Rocket 4.4 18:40:20 10° NW 18:41:55 19° NW 18:41:55 19° NW
